ICEYE-X27 (55062 NORAD) Tracking and Keplerian Element Data

This shows tracking and keplerian element data for the satellite.

Feedback or suggestion? Click here.




ElementValue
Catalog55062
NameICEYE-X27
Epoch Orbit11605
Epoch Day35.1702379
Epoch Year2025
RAAN99.7879
Inclination97.3925
Eccentricity0.0004694
Argument of Perigee112.2939
Mean Anonmoly247.8804
Mean Motion15.38510314
Decay Rate0.00043996
L11 55062U 23001BF 25035.17023790 .00043996 00000+0 11543-2 0 9994
L22 55062 97.3925 99.7879 0004694 112.2939 247.8804 15.38510314116051



Live tracking and technical data element details for ICEYE-X27 (NORAD 55062). ICEYE-X27 can be tracked NOW for your location showing map with azimuth and elevation plus other details from your city location.







IsCatalogInMostPopularTable: catalog: 55062, numindb: 42
Update: records affected: 1



GetName: 55062 ICEYE-X27

Hit Count: updated at: Wed, 18 Jun 2025 05:21:53 GMT